Flag Weather past 2 weeks in Konstanz, Baden-Württemberg, Germany

Now
37 °F

Low clouds.


Feels Like: 37 °F
Forecast: 36 / 49 °F
Wind: 1 mph from North

Location: Konstanz

Current Time: Nov 29, 2014 at 9:33:30 AM

Latest Report: Nov 29, 2014 at 9:00 AM


Visibility: 6 mi

Pressure: 29.97 "Hg

Humidity: 90%

Dew point: 34 °F

Location of KonstanzLocation

Historic Weather in Konstanz — Graph

°F

Konstanz temperature yesterday

Maximum temperature yesterday: 48 °F (at 3:00 PM)
Minimum temperature yesterday: 36 °F (at 10:00 PM)
Average temperature yesterday: 41 °F

Past Weeks' High & Low Weather Summary

 TemperatureHumidityPressure
High54 °F (Nov 16, 3:00 PM)100% (Nov 20, 12:00 AM)30.32 "Hg (Nov 20, 12:00 AM)
Low36 °F (Nov 28, 10:00 PM)63% (Nov 16, 2:00 PM)29.55 "Hg (Nov 15, 10:00 PM)
Average44 °F92%29.99 "Hg
* Reported Nov 14 8:00 AM — Nov 29 8:00 AM, Konstanz, Weather by CustomWeather, © 2014

Note: Actual official high and low records may vary slightly from our data, if they occured in-between our weather recording intervals... More about our weather records

Advertising

Konstanz weather history for previous 24 hours

 ConditionsComfort  
Time TempWeatherWind HumidityBarometerVisibility
8:00 AM
Nov 29
37 °FLow clouds.2 mph91%29.96 "Hg6 mi
7:00 AM36 °FLow clouds.1 mph90%29.96 "Hg11 mi
6:00 AM37 °FLow clouds.2 mph90%29.94 "Hg9 mi
5:00 AM37 °FLow clouds.2 mph90%29.93 "Hg10 mi
4:00 AM37 °FLow clouds.2 mph90%29.93 "Hg9 mi
3:00 AM37 °FLow clouds.2 mph92%29.92 "Hg9 mi
2:00 AM37 °FLow clouds.2 mph91%29.92 "Hg9 mi
1:00 AM37 °FLow clouds.2 mph91%29.92 "Hg9 mi
12:00 AM37 °FLow clouds.2 mph92%29.91 "Hg9 mi
11:00 PM
Nov 28
37 °FLow clouds.2 mph92%29.91 "Hg9 mi
10:00 PM36 °FPassing clouds.2 mph94%29.90 "Hg8 mi
9:00 PM36 °FClear.2 mph92%29.88 "Hg9 mi
8:00 PM37 °FPassing clouds.2 mph92%29.87 "Hg11 mi
7:00 PM37 °FClear.3 mph91%29.84 "Hg12 mi
6:00 PM38 °FClear.3 mph90%29.82 "Hg14 mi
5:00 PM40 °FPassing clouds.3 mph87%29.80 "Hg16 mi
4:00 PM44 °FPartly sunny.2 mph79%29.77 "Hg12 mi
3:00 PM48 °FScattered clouds.2 mph71%29.75 "Hg12 mi
2:00 PM48 °FScattered clouds.1 mph69%29.76 "Hg12 mi
1:00 PM46 °FPartly sunny.1 mph71%29.78 "Hg12 mi
12:00 PM43 °FPartly sunny.1 mph81%29.81 "Hg11 mi
11:00 AM41 °FLow clouds.2 mph86%29.83 "Hg16 mi
10:00 AM41 °FLow clouds.1 mph90%29.83 "Hg16 mi
9:00 AM40 °FLow clouds.1 mph93%29.83 "Hg12 mi
Weather by CustomWeather, © 2014

See weather overviewHow to use our weather pages